Lapse_Rate
8.3 8.1 7.8 7.4 7.0 6.1 5.7 8.2 6.5 7.9 8.1 6.7 6.7 6.5 6.5 4.9 6.6 7.2 6.5 6.5 6.5 6.5 6.5 6.5 6.5 6.5 6.5 6.9 6.6 6.5 6.5 6.5 6.5 6.5 6.5 6.5 6.5 6.5 6.5 6.5 6.5 6.5 6.5 6.5
8.2 8.0 7.9 7.4 6.8 6.2 7.2 7.5 7.5 8.3 7.5 6.5 6.5 6.5 6.5 6.6 6.5 6.5 6.5 6.5 6.5 6.5 6.5 6.5 6.5 6.5 6.7 7.0 6.5 6.5 6.5 6.5 6.5 6.5 6.5 6.5 6.5 6.5 6.5 6.5 6.5 6.5 6.5 6.5
8.0 7.8 7.6 7.1 6.7 6.2 6.0 7.6 6.5 7.5 7.8 7.5 6.5 6.5 6.5 6.5 7.1 6.5 6.8 6.5 6.6 6.5 6.5 6.5 6.5 6.5 6.5 6.9 6.8 6.6 6.7 6.5 6.5 6.5 6.5 6.5 6.5 6.5 6.5 6.5 6.5 6.5 6.5 6.5
7.9 7.9 7.7 7.2 6.5 6.1 6.7 7.7 6.7 7.3 6.5 6.6 6.5 6.5 6.5 6.5 6.5 6.8 7.0 6.5 6.5 6.5 6.5 6.5 6.5 6.5 6.5 6.6 6.8 6.5 6.5 6.5 6.5 6.5 6.5 6.5 6.5 6.5 6.5 6.5 6.5 6.5 6.5 6.5
7.8 7.8 7.6 6.9 6.6 6.3 7.9 5.6 6.9 7.6 6.9 7.0 6.5 6.5 6.5 6.5 6.5 6.5 6.5 6.5 6.5 6.5 6.5 6.5 6.5 6.5 6.5 6.5 6.5 6.5 6.5 6.5 6.5 6.5 6.5 6.5 6.5 6.5 6.5 6.5 6.5 6.5 6.5 6.5
7.8 7.8 7.1 6.9 6.7 6.5 8.5 8.7 8.7 7.7 6.8 6.5 6.5 6.5 6.5 6.5 6.5 6.8 7.0 6.6 6.5 6.5 6.5 7.0 7.1 7.2 7.0 6.6 6.5 6.5 6.5 6.5 6.5 6.5 6.5 6.5 6.5 6.5 6.5 6.5 6.5 6.5 6.5 6.5
7.7 7.6 7.4 7.1 6.8 6.9 8.9 8.9 8.5 7.1 6.5 6.5 6.5 6.5 6.6 6.5 6.5 6.5 6.9 7.1 6.5 7.2 8.1 7.9 7.6 7.3 7.0 6.7 6.5 6.6 6.5 6.5 6.5 6.5 6.5 6.5 6.5 6.5 6.5 6.5 6.5 6.5 6.5 6.5
8.2 7.8 7.5 7.2 6.8 6.9 8.5 9.4 8.5 7.5 6.5 6.7 6.6 6.6 6.5 6.9 7.0 6.6 6.8 7.2 7.7 8.2 7.5 6.5 6.5 6.5 6.5 6.5 6.5 6.5 6.5 6.5 6.5 6.5 6.5 6.5 6.5 6.5 6.5 6.5 6.5 6.5 6.5 6.5
8.3 7.9 7.6 7.5 6.9 6.8 8.3 9.4 9.4 8.2 6.8 6.6 7.3 6.6 6.9 6.5 6.5 6.5 6.8 7.9 8.3 7.8 6.5 6.5 6.5 6.5 6.5 6.5 6.5 6.5 6.5 6.5 6.5 6.5 6.5 6.5 6.5 6.5 6.7 6.5 6.5 6.5 6.6 6.5
8.1 7.8 7.6 7.4 7.2 7.0 8.1 9.3 9.2 8.6 7.0 7.8 7.7 6.7 6.7 7.4 6.8 6.5 6.8 7.1 7.0 7.6 6.5 6.5 6.5 6.5 6.5 6.5 6.5 6.5 6.5 6.5 6.5 6.5 6.5 6.5 6.5 6.5 6.9 6.5 6.5 6.8 7.1 7.0
8.0 7.8 7.7 7.6 7.4 7.1 7.8 9.1 9.7 8.6 7.6 7.9 8.3 8.2 7.4 7.4 7.3 6.5 7.0 6.8 6.9 6.6 6.5 6.5 6.5 6.5 6.5 6.5 6.5 6.5 6.5 6.5 6.5 6.5 6.5 6.5 6.9 6.7 6.5 6.6 7.1 7.1 7.3 7.3
8.0 8.0 7.8 7.7 7.5 7.4 7.2 8.5 9.3 9.5 8.4 8.0 9.0 9.0 9.1 8.7 8.5 7.7 7.5 6.9 6.8 6.9 6.5 6.5 6.5 6.5 6.5 6.5 6.5 6.5 6.5 6.5 6.5 6.5 6.5 6.6 7.2 6.9 7.3 7.5 7.1 7.3 7.4 7.6
7.9 8.0 7.8 7.7 7.6 7.6 7.6 7.1 9.4 9.2 8.0 8.0 8.2 8.0 9.0 9.6 9.3 9.4 7.2 7.5 7.9 7.4 7.6 6.8 6.5 6.5 6.5 6.5 6.5 6.5 6.5 6.7 6.5 6.5 6.5 6.6 7.1 7.5 7.6 7.5 7.4 7.7 7.7 7.5
7.9 7.8 7.8 7.7 7.6 7.5 7.6 8.5 9.0 9.1 8.3 6.8 7.3 9.3 8.7 9.6 9.5 9.2 9.0 8.5 8.5 8.3 7.9 6.8 6.5 6.5 6.8 6.5 6.5 6.5 6.6 6.6 6.5 6.5 6.5 6.8 7.2 7.2 7.6 7.5 7.6 7.1 7.1 7.3
7.8 7.8 7.9 7.7 7.5 7.3 7.8 9.3 8.6 8.7 7.9 6.8 7.2 8.6 9.1 9.3 9.2 8.9 8.9 8.5 8.1 7.6 6.9 6.6 6.5 6.8 6.6 6.5 6.5 6.5 6.7 6.5 6.5 6.5 6.7 6.8 6.9 7.2 7.7 7.0 7.0 6.9 7.5 7.3
7.8 8.1 7.9 7.9 7.7 7.2 8.5 6.1 7.6 8.6 9.0 7.4 6.5 8.4 8.3 8.8 8.9 8.6 8.4 8.3 8.1 7.8 7.1 6.8 7.2 7.6 6.8 6.5 6.5 6.7 7.2 7.4 7.4 6.8 6.9 7.0 6.9 6.9 7.1 7.4 7.2 7.1 7.4 7.2
7.8 7.9 8.0 8.1 7.9 9.0 7.4 6.9 5.8 6.8 7.1 6.3 6.7 6.7 8.1 8.6 8.5 8.2 8.1 8.4 8.0 7.7 7.3 6.9 7.0 7.0 7.0 6.5 6.5 6.8 7.3 7.5 6.9 6.8 6.8 7.0 7.1 7.1 7.2 8.0 8.2 8.5 8.6 8.5
7.9 7.9 8.0 8.0 7.8 8.0 8.0 8.1 6.7 6.5 5.5 6.3 6.5 6.5 7.0 8.5 7.3 7.0 8.2 7.5 7.5 7.5 7.2 7.2 6.7 7.0 6.8 6.5 6.6 7.2 7.5 7.2 7.0 6.9 6.9 7.1 7.4 8.1 8.1 8.4 8.4 8.1 8.1 8.3
7.8 7.7 7.9 8.3 8.3 7.1 7.3 6.4 6.1 5.8 6.5 7.0 6.8 6.5 6.5 8.1 7.4 7.4 7.4 7.7 6.5 7.6 6.5 6.6 6.8 6.5 6.5 6.5 6.8 7.1 7.2 6.8 6.9 6.8 7.0 7.9 7.9 8.0 8.1 8.2 8.2 8.0 8.0 8.2
7.8 7.9 7.2 7.0 6.8 6.1 6.0 6.3 6.7 6.6 6.7 7.3 6.6 7.5 6.5 7.4 7.1 6.7 6.7 7.0 6.5 6.5 6.5 7.2 6.5 6.5 7.2 7.5 7.7 7.8 7.8 7.6 6.9 7.2 7.0 7.5 7.6 7.8 7.9 8.0 8.2 8.2 8.2 8.1
8.2 6.8 6.6 6.4 6.7 6.8 6.8 7.0 6.8 7.1 6.6 7.4 7.3 7.3 6.6 8.0 6.5 6.5 7.1 6.5 6.5 6.5 6.5 6.5 6.5 6.5 6.6 7.7 7.8 8.1 8.2 8.3 8.2 7.9 7.7 8.0 8.1 8.0 8.0 8.0 8.0 7.5 7.1 6.5
7.2 6.4 6.5 6.3 6.8 7.1 6.6 6.5 6.7 6.5 6.5 7.0 6.7 7.0 7.3 7.2 7.8 6.6 6.7 6.5 6.5 6.5 6.7 6.5 6.5 6.5 7.4 7.6 7.8 8.0 8.2 8.2 8.1 8.2 8.0 8.0 8.2 8.1 8.0 7.6 6.9 6.4 6.1 5.5
6.7 6.8 7.2 7.4 7.1 6.5 6.5 6.5 6.5 6.5 6.7 7.0 6.8 6.6 7.1 7.4 7.5 6.6 6.5 6.5 6.5 6.8 6.5 6.5 6.5 7.0 7.6 7.8 7.9 8.0 8.4 8.3 8.2 7.7 7.6 7.4 7.2 7.3 7.6 7.3 7.0 6.4 5.0 4.7
7.3 7.0 6.5 6.5 6.5 6.5 6.5 6.5 6.5 7.0 7.0 7.1 7.1 6.8 6.7 6.9 6.5 6.5 6.5 6.5 6.5 6.5 6.5 6.5 6.5 7.1 7.5 7.9 8.1 7.9 7.6 7.5 7.6 7.5 7.5 7.3 6.0 5.2 5.3 5.4 5.3 4.5 3.8 3.3
7.2 7.1 6.5 6.5 6.8 6.9 6.8 6.7 7.0 7.4 5.7 7.3 6.8 6.9 7.0 6.5 6.5 6.5 6.5 6.5 6.5 6.5 6.5 6.5 7.1 7.4 7.6 7.3 7.1 7.3 7.4 7.2 7.3 7.5 7.6 7.4 7.0 6.8 6.2 5.1 4.4 3.7 3.0 2.8
7.4 7.2 6.6 7.0 6.7 6.6 7.0 6.4 6.5 7.7 6.4 6.1 6.6 6.5 6.5 6.5 6.5 6.5 6.5 6.5 6.5 6.5 6.5 7.1 7.5 7.4 7.1 7.2 7.5 7.6 7.6 7.4 7.6 7.9 7.7 7.6 7.7 6.9 5.0 4.6 4.2 3.7 3.7 3.2
7.1 6.8 6.9 7.0 6.9 7.1 7.0 6.4 7.2 7.0 6.6 6.5 6.7 6.5 6.5 6.5 6.5 6.5 6.5 6.5 6.5 6.9 7.1 7.5 7.4 7.5 7.3 7.5 7.5 7.6 7.8 7.8 7.8 7.7 7.9 7.3 5.7 5.1 7.2 7.5 6.4 8.0 5.7 4.7
Wind_Speed
6 5 3 2 3 8 5 4 2 2 4 4 3 2 3 2 3 1 1 3 3 4 6 9 10 13 12 17 21 15 8 4 13 20 20 21 20 15 16 8 7 6 9 3
8 6 5 4 5 8 5 3 3 1 3 2 4 3 4 2 1 2 1 2 1 7 6 5 6 10 10 13 15 11 1 5 8 15 16 16 8 11 20 18 3 9 5 4
8 5 4 5 4 7 4 2 1 3 4 1 3 4 4 5 2 2 2 4 3 4 5 9 8 15 6 7 14 5 6 9 11 14 10 14 14 17 17 12 6 5 7 9
8 5 4 3 4 7 4 2 3 2 2 3 5 4 2 3 1 4 7 2 4 6 7 11 14 12 13 13 14 12 11 16 17 21 24 16 16 22 10 17 15 8 9 9
9 6 4 3 4 8 3 1 3 3 5 5 5 2 5 3 5 2 4 2 9 11 10 13 15 14 14 16 13 11 10 12 17 20 20 19 25 20 6 9 10 7 19 3
9 6 4 1 4 5 1 1 4 4 6 6 5 6 4 2 1 4 8 8 9 11 13 16 16 16 18 20 19 16 11 4 8 14 14 14 12 18 10 11 19 10 3 8
8 6 4 2 4 5 6 2 3 1 2 6 5 3 0 4 5 6 10 8 9 11 14 17 18 20 22 22 21 17 15 11 7 7 9 7 12 12 13 6 17 12 10 14
10 8 6 3 5 5 6 1 4 2 3 3 5 3 5 6 6 8 10 9 8 11 14 10 10 9 14 16 17 16 16 10 5 4 5 15 17 7 8 6 9 16 16 16
11 10 7 5 4 4 5 4 5 3 3 2 6 1 3 6 4 3 6 1 5 10 4 5 7 10 15 5 8 16 15 10 3 3 2 4 7 17 5 3 6 14 14 12
12 10 8 5 4 3 4 2 4 2 2 2 1 4 3 4 3 5 5 8 8 3 3 6 6 5 11 3 4 13 8 4 9 9 6 3 17 17 8 1 5 12 11 9
13 11 10 7 5 4 3 1 2 3 1 3 1 2 3 1 4 4 6 5 5 4 4 4 4 3 4 7 1 9 7 6 5 7 6 5 23 12 7 5 11 10 11 10
12 14 11 9 7 6 4 0 3 3 2 3 9 8 8 8 9 6 5 5 5 5 4 5 3 6 4 8 3 7 2 4 3 6 3 7 12 12 10 10 10 11 10 10
15 13 11 10 7 9 9 3 2 2 2 5 6 6 8 8 7 6 4 3 5 3 2 2 3 5 5 5 3 6 10 14 4 3 8 11 12 12 12 12 11 11 12 11
13 13 12 10 7 6 9 3 2 3 2 2 1 3 5 2 4 7 6 8 7 6 5 4 3 4 6 5 7 4 6 7 9 4 5 6 13 11 10 10 10 11 11 11
16 15 12 9 7 6 6 5 3 5 3 4 5 10 7 9 5 4 5 5 5 4 3 3 6 5 5 5 2 5 6 5 4 3 8 4 7 8 11 12 11 7 10 11
15 13 11 9 8 7 2 2 4 10 1 2 3 4 5 7 6 7 6 5 2 1 2 4 4 9 3 3 3 5 7 8 7 3 6 9 8 9 10 10 9 10 10 10
16 13 10 8 7 5 2 1 1 8 4 0 4 3 2 6 5 5 3 4 2 2 3 4 8 9 3 2 2 6 7 7 5 5 3 7 9 6 6 7 8 9 10 10
15 12 7 6 4 2 2 5 10 9 2 1 3 4 2 7 4 4 4 3 2 4 4 5 6 5 2 1 4 4 5 6 7 7 7 8 5 5 6 5 6 9 9 10
15 11 7 3 3 2 2 3 11 4 1 2 4 3 2 1 3 2 3 4 4 4 5 3 3 2 1 5 6 4 5 4 4 4 4 6 5 5 7 7 8 9 9 9
15 6 2 2 3 21 15 2 2 2 3 4 4 5 4 4 2 3 2 3 3 3 5 2 2 2 6 6 5 5 5 4 3 4 4 4 5 7 10 10 9 10 9 9
3 3 2 1 23 3 2 3 5 5 4 5 5 8 5 4 3 4 3 2 2 3 4 4 4 3 4 5 6 6 7 7 8 9 9 9 8 7 9 10 11 11 11 9
4 2 3 2 2 4 3 4 3 4 4 4 6 5 5 2 3 2 2 3 2 3 1 2 2 4 8 7 7 7 8 9 10 10 10 10 10 10 10 10 9 9 8 7
2 3 4 3 4 4 4 7 4 4 4 1 1 1 1 2 1 1 2 2 4 2 3 2 3 8 7 7 7 7 7 8 9 9 10 12 12 11 10 10 8 8 8 6
3 5 6 4 5 4 4 5 2 3 2 4 4 2 1 1 2 1 3 2 3 2 3 3 5 8 8 8 6 8 8 8 9 10 10 9 9 9 8 7 6 6 6 5
3 4 4 6 1 2 4 2 2 2 2 3 3 2 3 3 2 3 3 3 4 2 3 3 7 10 8 7 7 7 7 6 7 7 7 7 7 7 8 7 6 5 4 5
2 2 1 1 2 3 2 2 2 2 1 1 1 2 3 4 2 4 4 3 3 3 4 6 8 8 8 8 7 7 7 8 7 7 7 7 6 7 7 5 5 4 4 3
2 2 2 2 2 2 2 0 3 2 1 2 3 4 1 2 2 3 2 3 3 5 5 5 8 8 8 8 8 7 7 8 8 7 7 7 5 6 6 6 5 5 5 2
Wind_Direction
147 143 116 78 334 340 305 276 236 44 307 222 199 214 32 353 66 103 40 298 295 286 329 304 301 295 293 321 318 303 358 303 286 271 267 206 248 235 229 228 250 284 283 294
143 133 110 80 5 2 320 258 83 186 267 200 184 97 111 24 132 38 20 293 336 339 312 311 313 316 329 329 310 323 335 278 293 270 261 251 223 240 233 216 266 233 273 289
140 132 95 62 357 347 336 324 166 165 219 5 55 150 155 136 57 53 325 322 288 317 336 308 322 308 322 319 296 67 334 261 258 276 294 312 298 296 294 298 212 255 257 334
149 141 107 76 357 337 306 27 274 356 170 142 110 152 233 159 251 196 246 79 244 264 297 313 296 322 324 319 310 286 216 262 271 270 288 290 276 279 289 303 282 228 260 254
158 152 122 62 327 327 271 107 292 199 110 89 161 85 221 246 134 267 108 264 286 289 298 295 312 312 300 306 299 304 345 271 265 269 277 281 306 249 221 302 298 352 254 174
184 167 118 77 318 343 49 280 271 277 116 170 211 180 195 243 315 273 264 281 313 313 302 304 309 301 288 275 278 281 275 275 310 264 279 299 283 247 239 218 214 239 7 57
192 167 147 239 307 313 317 3 309 336 195 228 182 108 212 253 269 297 312 311 290 296 334 313 289 270 265 260 253 245 250 255 276 290 303 266 266 193 206 200 49 37 73 66
190 178 174 209 292 327 320 354 334 341 280 206 131 204 256 276 271 236 249 280 329 344 309 302 300 291 281 271 266 226 234 225 268 276 284 286 187 112 143 150 46 23 20 29
185 178 179 203 261 315 307 16 345 342 328 65 35 110 241 277 321 274 290 325 360 286 305 289 283 304 310 288 305 200 202 210 203 293 278 273 13 341 23 103 85 27 19 15
180 175 173 177 206 261 316 1 348 339 5 74 233 13 38 12 334 296 356 339 310 43 297 287 281 297 325 273 263 174 159 172 217 249 250 241 346 329 296 31 39 39 36 29
177 173 173 173 181 232 280 320 6 4 274 313 22 328 301 248 256 320 332 326 6 330 310 318 10 308 317 290 226 163 180 216 212 219 238 82 355 19 58 349 50 45 59 73
188 177 174 182 191 220 246 205 23 6 301 302 323 306 302 299 314 320 325 308 329 23 329 3 325 290 262 2 16 5 67 352 4 36 45 33 49 59 44 46 55 48 73 81
162 171 175 180 195 212 216 11 142 206 316 294 237 239 202 217 228 252 275 23 31 30 208 305 300 298 326 349 26 351 355 18 36 199 37 51 40 57 54 53 62 63 65 76
171 167 161 163 174 193 213 216 260 288 294 276 298 29 242 226 232 216 231 277 272 297 304 289 275 293 330 319 322 57 356 356 335 91 84 102 49 40 55 67 70 71 72 82
167 165 163 166 170 183 232 297 301 294 314 336 311 286 225 207 206 221 216 246 268 309 302 289 289 284 324 307 27 44 7 7 6 22 0 78 44 49 56 53 48 65 88 86
165 163 164 169 171 177 140 339 236 227 246 299 301 341 238 217 228 235 225 195 188 199 293 262 258 282 286 299 44 64 35 43 22 49 62 84 86 58 62 74 74 64 65 77
161 160 168 175 176 202 183 43 327 67 88 55 276 261 224 237 226 243 242 214 160 223 254 246 256 278 279 277 38 87 62 55 44 17 353 105 41 80 67 83 86 85 83 79
152 154 163 174 174 253 278 194 126 95 85 250 266 267 243 180 199 215 167 163 162 219 242 264 260 275 260 84 121 97 91 89 64 48 62 88 117 134 140 124 106 82 73 68
148 147 157 169 199 189 192 116 144 80 220 243 232 249 284 192 239 191 182 179 221 231 211 241 264 235 223 78 107 80 49 55 62 62 55 73 65 67 54 55 65 84 84 81
141 121 157 200 192 125 115 102 153 182 208 228 248 244 271 183 196 196 221 191 233 232 214 191 207 81 110 96 95 97 83 84 2 244 95 48 78 74 58 55 54 72 84 81
140 159 219 101 146 146 189 177 202 190 218 216 234 227 225 178 189 219 225 219 254 253 167 215 198 142 127 129 98 76 61 57 62 69 56 52 63 90 96 77 72 70 69 67
161 124 104 108 218 206 185 190 212 215 230 185 180 225 197 192 179 243 262 239 224 253 102 219 209 109 122 123 102 78 65 62 61 60 72 65 69 83 89 87 81 80 79 75
120 219 170 215 173 189 216 178 202 214 189 195 108 121 134 196 183 228 289 262 240 144 215 160 60 128 132 128 122 97 84 81 83 74 74 74 68 70 88 91 86 92 85 86
217 186 178 244 163 232 196 268 192 48 84 151 139 134 188 80 190 256 247 258 260 246 229 94 129 127 109 90 89 95 82 76 83 83 83 86 87 81 78 88 91 92 88 62
251 207 201 204 101 49 38 26 75 85 68 136 112 230 183 188 223 214 285 239 238 355 57 82 117 115 112 106 102 106 108 102 100 105 108 108 106 103 95 85 94 96 96 94
257 344 192 65 207 160 201 199 132 125 75 50 245 220 194 209 218 189 228 267 5 70 89 110 118 119 112 114 119 127 126 116 119 121 119 119 112 101 102 101 93 92 98 115
232 174 264 324 356 86 106 114 103 91 183 217 214 207 177 106 214 228 10 12 73 116 117 114 119 128 120 119 120 122 130 125 120 123 116 104 116 154 159 119 136 142 115 112